Wind_Speed
21 20 20 19 19 18 17 15 14 13 12 12 11 11 10 9 9 9 8 8 7 7 7 6 6 7 7 7 7 7 8 8 8 7 7 7 7 7 7 8 8 8 9
22 22 21 21 20 20 19 18 17 16 15 14 13 13 12 11 10 10 10 10 9 9 9 8 8 8 8 9 9 9 9 9 10 10 9 9 9 9 9 9 9 10 10
22 22 22 22 22 22 21 20 20 19 18 17 16 15 14 13 12 11 11 11 11 11 11 11 10 10 10 10 11 11 11 11 11 11 11 11 11 11 11 11 11 11 12
22 22 22 23 23 23 23 22 21 20 20 19 18 17 16 15 14 14 13 13 12 12 12 12 12 12 12 12 12 12 13 13 13 13 13 13 13 13 13 13 13 14 14
24 24 23 23 23 24 24 24 23 22 21 21 20 19 18 17 17 16 16 15 15 14 14 14 14 14 14 14 14 14 14 15 15 15 15 15 15 16 16 16 16 16 16
27 27 25 25 24 24 24 25 24 24 23 22 22 21 21 20 19 19 18 18 17 16 16 16 15 15 15 15 16 16 16 16 17 17 17 17 17 18 18 18 18 18 18
30 29 28 28 27 26 26 25 26 26 25 24 24 23 23 22 21 21 20 20 19 19 18 18 17 17 17 17 17 17 18 18 19 19 19 19 19 19 19 19 19 19 20
33 32 31 30 30 29 29 28 27 27 27 26 26 25 24 24 23 23 23 22 21 21 21 20 20 20 19 19 19 19 19 20 20 20 20 20 20 20 20 20 21 21 21
35 35 34 33 33 32 31 31 30 29 28 28 27 27 26 26 25 25 24 24 23 23 22 22 22 22 21 21 21 20 20 21 21 21 21 21 22 22 22 22 23 23 22
37 37 36 36 35 35 33 33 33 32 31 30 29 29 28 27 27 26 26 26 25 25 25 24 24 24 24 23 23 22 22 22 22 23 23 23 23 23 24 24 24 24 25
39 39 39 38 38 37 36 35 35 34 34 33 32 32 31 30 30 29 28 27 27 27 27 26 26 26 26 26 25 25 25 24 24 24 24 25 25 25 26 26 26 26 27
40 40 40 40 39 39 38 38 37 36 36 35 34 34 34 33 32 31 30 29 29 29 28 28 27 27 28 28 28 27 26 26 26 26 26 26 26 27 27 27 27 28 28
41 41 41 41 41 40 40 40 40 39 38 37 36 35 35 35 34 33 32 30 30 30 30 30 29 29 29 29 29 29 28 28 28 28 27 27 27 28 28 28 28 29 29
40 41 42 41 41 41 41 41 42 41 41 40 38 37 37 36 35 34 33 32 31 31 31 31 31 31 31 31 30 30 29 30 30 29 30 29 29 29 30 30 30 30 31
41 41 41 42 42 42 42 42 42 42 42 42 41 40 39 38 37 36 35 34 33 33 32 31 31 32 31 31 32 31 31 31 31 32 31 31 31 31 31 31 32 31 31
40 41 41 41 42 42 43 43 44 43 43 43 43 42 41 40 39 39 38 37 36 35 34 33 33 33 33 33 33 33 33 33 33 33 33 33 33 33 33 33 33 33 33
41 41 41 41 41 41 42 43 44 44 44 44 43 43 42 41 40 40 40 40 39 37 37 36 35 35 35 34 34 34 35 35 35 35 35 35 35 35 35 35 35 35 35
41 41 41 41 42 41 41 42 43 44 44 45 45 45 44 43 43 43 42 41 41 40 40 39 38 38 37 37 36 36 36 36 36 36 36 37 37 37 36 36 36 36 36
40 40 41 42 42 41 41 41 42 43 44 45 45 45 46 45 45 44 44 44 43 42 42 41 40 39 39 38 38 38 38 37 37 37 37 38 38 37 38 38 38 37 37
40 41 41 42 42 42 42 42 43 44 44 44 45 45 46 46 46 45 46 46 45 44 43 42 42 41 41 40 40 40 39 39 39 38 38 38 38 38 39 39 39 39 39
39 40 41 42 42 43 42 42 43 43 44 44 44 45 45 46 45 44 45 45 44 44 44 44 43 42 41 41 41 41 40 40 40 40 39 39 39 40 39 39 40 40 41
37 39 40 41 42 42 42 42 42 43 43 43 44 44 44 45 44 45 46 45 45 44 44 43 43 42 42 41 41 42 41 41 42 41 41 41 41 41 40 40 41 42 42
34 35 37 37 38 39 40 40 41 42 42 42 44 44 44 45 44 44 45 45 45 45 44 44 43 43 42 42 42 42 42 41 41 41 41 42 43 42 42 42 42 43 43
32 33 35 36 36 37 38 39 40 41 41 41 43 43 44 44 43 43 43 43 43 43 43 43 43 43 43 43 43 43 44 43 43 42 42 42 41 41 42 42 42 43 44
31 32 33 34 35 36 37 37 38 39 39 40 41 42 42 42 42 41 41 41 41 41 42 43 44 44 45 45 44 44 44 43 44 43 42 42 43 42 42 42 42 42 43
30 31 32 33 34 34 35 35 36 36 37 37 38 40 41 41 40 39 39 39 39 39 40 41 42 43 44 44 45 44 44 43 43 42 42 42 42 41 41 41 41 42 41
Wind_Direction
240 240 241 242 244 245 246 247 249 251 254 257 261 264 267 271 273 275 277 281 283 284 287 288 286 285 280 275 273 271 271 271 272 275 279 284 289 293 296 299 302 305 308
240 240 241 242 243 244 246 247 249 251 253 255 258 261 264 268 271 272 274 275 278 280 281 283 282 282 281 277 275 275 275 274 274 274 276 280 285 289 293 296 299 302 304
241 241 241 243 243 244 245 246 248 250 252 253 256 258 260 263 267 270 271 272 274 277 278 279 279 279 279 279 277 276 276 276 276 277 278 279 283 287 290 293 295 297 299
241 241 241 243 244 244 245 246 248 249 251 253 254 256 257 260 264 267 269 271 273 275 276 276 277 278 277 277 278 277 276 278 279 279 280 282 284 286 288 289 291 294 296
242 242 242 243 244 245 245 246 247 249 250 251 253 254 256 258 261 265 267 269 271 272 273 275 276 276 276 276 276 278 278 278 279 280 281 283 285 286 287 288 290 292 294
243 243 243 244 245 245 246 246 247 248 250 251 253 254 256 257 259 262 264 266 268 270 271 272 274 276 277 277 277 277 277 278 279 280 281 283 284 285 286 287 289 290 292
244 244 245 245 246 246 247 247 248 249 250 251 253 255 257 259 259 260 263 265 266 267 269 271 272 273 275 276 277 277 277 277 279 280 281 282 283 284 286 287 288 289 290
245 245 245 246 246 247 247 248 249 250 251 252 253 255 256 257 259 261 262 263 265 266 266 269 270 271 272 274 276 277 278 277 278 279 280 281 283 284 285 286 287 289 290
246 247 247 247 247 248 248 249 250 251 252 253 254 255 256 258 259 260 261 262 262 264 266 266 268 270 271 273 275 276 277 278 278 279 280 281 282 283 283 285 286 287 288
248 248 248 248 248 249 249 250 251 251 252 252 253 255 256 258 258 260 261 260 261 262 264 265 267 268 269 271 273 274 275 277 279 280 280 281 282 283 284 284 285 285 287
248 248 248 249 249 249 249 250 250 251 252 253 253 254 255 257 258 260 261 260 260 261 263 264 266 268 269 270 271 272 273 275 277 278 280 281 281 283 284 285 284 285 286
247 247 248 248 249 249 249 249 250 251 252 253 254 254 255 256 258 259 261 261 260 261 262 264 266 267 268 269 270 271 272 273 274 276 278 280 281 282 283 284 284 285 286
247 247 247 248 249 249 249 249 250 250 251 252 253 254 255 256 257 258 260 261 261 261 262 264 266 267 268 269 270 271 271 272 273 275 277 279 280 282 283 284 284 285 287
246 246 247 248 249 249 250 250 250 250 250 251 252 253 254 256 257 258 259 259 260 260 262 264 265 266 267 269 270 271 272 271 272 274 276 277 280 281 283 284 284 285 286
247 247 247 248 248 249 250 250 250 250 250 250 251 252 253 255 256 257 258 260 260 260 261 262 265 267 269 270 270 271 272 273 273 273 275 276 278 281 282 283 284 286 286
246 246 247 248 249 249 249 249 250 249 250 249 250 251 252 254 255 256 257 259 259 260 260 262 264 267 268 270 271 271 272 273 274 274 275 276 278 279 280 282 284 285 285
247 247 247 249 249 250 250 250 249 249 249 250 251 251 252 252 253 255 256 257 258 259 260 262 264 266 267 270 271 272 272 273 274 274 276 277 278 278 279 280 282 284 284
247 247 248 248 249 250 251 251 250 250 250 250 251 251 252 252 252 253 255 257 257 259 260 261 262 264 266 268 269 271 272 273 273 274 276 277 277 277 278 280 282 283 283
248 248 248 248 249 250 251 251 250 249 250 250 251 252 252 252 252 253 255 256 257 258 259 261 262 264 266 267 269 270 271 273 273 274 274 275 276 277 277 279 281 282 283
248 248 248 249 249 249 250 250 250 250 250 250 251 251 252 252 252 253 255 256 257 258 258 260 262 263 265 267 268 268 269 271 273 273 274 274 274 276 277 278 280 281 283
248 248 249 249 249 249 250 251 250 250 250 250 250 250 250 251 252 253 255 256 257 257 258 259 261 262 264 266 268 268 268 270 271 272 273 274 275 275 277 279 280 282 283
249 249 249 249 249 250 250 251 250 250 249 249 248 248 249 249 252 254 255 255 256 257 258 259 260 261 263 265 267 268 268 269 270 271 273 275 275 275 276 278 280 282 283
249 248 247 248 249 250 251 251 250 250 250 251 248 248 248 249 251 253 255 254 254 256 256 257 259 260 261 263 266 268 268 268 269 272 273 275 274 274 276 278 279 281 283
249 248 247 247 249 250 251 252 251 249 250 250 248 246 248 250 253 254 254 253 254 255 256 256 258 259 261 263 264 267 267 268 270 271 272 274 275 276 277 278 279 282 282
249 248 247 248 249 251 252 252 250 250 250 251 247 246 248 250 254 254 254 253 254 255 256 257 258 259 261 262 263 266 267 268 269 270 271 273 275 276 276 277 279 281 282
250 248 248 248 249 251 252 250 250 249 250 250 248 248 248 250 253 254 255 255 256 256 257 258 259 260 260 262 264 266 267 268 271 272 273 274 274 275 276 277 279 282 283
Height
5863 5865 5867 5868 5869 5871 5872 5873 5874 5875 5876 5877 5878 5878 5879 5879 5880 5880 5880 5880 5880 5880 5880 5880 5880 5879 5879 5879 5879 5878 5878 5878 5877 5877 5876 5876 5875 5874 5873 5872 5871 5870 5869
5860 5861 5863 5865 5866 5868 5869 5871 5872 5873 5874 5875 5876 5876 5877 5878 5878 5878 5878 5879 5879 5879 5879 5879 5878 5878 5878 5878 5878 5877 5877 5877 5876 5876 5875 5874 5874 5873 5872 5871 5870 5869 5868
5856 5858 5859 5861 5863 5864 5866 5867 5869 5870 5871 5872 5873 5874 5875 5876 5876 5876 5876 5877 5877 5877 5877 5877 5877 5877 5877 5876 5876 5876 5876 5875 5875 5874 5874 5873 5872 5871 5871 5870 5869 5868 5867
5851 5853 5855 5857 5858 5860 5862 5864 5865 5867 5868 5869 5871 5872 5872 5873 5874 5874 5874 5875 5875 5875 5875 5875 5875 5875 5875 5875 5875 5874 5874 5873 5873 5872 5872 5871 5871 5870 5869 5868 5867 5866 5865
5847 5849 5851 5853 5854 5856 5858 5860 5861 5863 5864 5866 5867 5868 5869 5870 5871 5872 5872 5872 5873 5873 5873 5873 5873 5873 5873 5872 5872 5872 5872 5871 5871 5870 5870 5869 5868 5867 5866 5865 5864 5863 5862
5842 5844 5846 5848 5850 5852 5853 5855 5857 5859 5861 5862 5863 5865 5866 5867 5868 5869 5869 5869 5870 5870 5870 5870 5870 5870 5870 5870 5870 5869 5869 5869 5868 5868 5867 5866 5866 5865 5864 5863 5862 5860 5859
5836 5839 5841 5843 5845 5847 5849 5851 5853 5855 5856 5858 5859 5861 5862 5863 5864 5865 5865 5866 5866 5867 5867 5867 5867 5867 5867 5867 5867 5866 5866 5866 5865 5865 5864 5863 5862 5862 5861 5859 5858 5857 5856
5830 5833 5835 5838 5840 5842 5844 5846 5848 5850 5851 5853 5855 5856 5858 5859 5860 5861 5862 5862 5863 5863 5864 5864 5864 5864 5864 5864 5863 5863 5863 5862 5862 5861 5861 5860 5859 5858 5857 5856 5855 5854 5852
5824 5827 5829 5831 5834 5836 5838 5840 5842 5844 5846 5848 5850 5851 5853 5854 5855 5856 5857 5858 5858 5859 5859 5860 5860 5860 5860 5860 5860 5859 5859 5859 5858 5858 5857 5856 5855 5854 5853 5852 5851 5850 5849
5817 5820 5822 5825 5827 5830 5832 5834 5836 5838 5840 5842 5844 5846 5847 5849 5850 5851 5852 5853 5854 5854 5855 5855 5855 5855 5856 5856 5855 5855 5855 5854 5854 5853 5853 5852 5851 5850 5849 5848 5847 5846 5845
5810 5813 5815 5818 5820 5823 5825 5828 5830 5832 5834 5836 5838 5840 5842 5843 5844 5846 5847 5848 5849 5849 5850 5850 5850 5851 5851 5851 5851 5851 5850 5850 5849 5849 5848 5848 5847 5846 5845 5844 5842 5841 5840
5802 5805 5808 5810 5813 5816 5818 5821 5823 5825 5827 5829 5832 5834 5835 5837 5838 5840 5841 5842 5843 5844 5844 5845 5845 5845 5845 5845 5845 5845 5845 5845 5844 5844 5843 5843 5842 5841 5840 5839 5837 5836 5835
5794 5797 5800 5802 5805 5808 5810 5813 5815 5818 5820 5822 5825 5827 5828 5830 5832 5834 5835 5836 5837 5838 5839 5839 5840 5840 5840 5840 5840 5840 5840 5840 5839 5839 5838 5837 5836 5835 5834 5833 5832 5831 5829
5786 5789 5791 5794 5797 5799 5802 5804 5807 5810 5812 5815 5817 5819 5822 5824 5825 5827 5829 5830 5831 5831 5832 5833 5834 5834 5834 5834 5834 5834 5834 5834 5833 5833 5832 5831 5831 5830 5829 5828 5826 5825 5824
5778 5780 5783 5786 5788 5791 5793 5795 5798 5801 5804 5807 5809 5812 5814 5817 5819 5820 5822 5823 5824 5825 5826 5827 5827 5827 5828 5828 5828 5828 5828 5827 5827 5827 5826 5825 5825 5824 5822 5821 5820 5819 5817
5769 5772 5774 5777 5779 5782 5784 5787 5789 5792 5795 5798 5801 5803 5806 5809 5811 5813 5814 5816 5817 5818 5819 5820 5820 5821 5821 5821 5821 5821 5821 5821 5821 5820 5819 5819 5818 5817 5816 5815 5813 5812 5811
5760 5763 5766 5768 5771 5773 5775 5778 5780 5783 5786 5789 5792 5794 5797 5800 5802 5804 5806 5808 5809 5810 5811 5812 5813 5814 5814 5814 5814 5814 5814 5813 5813 5813 5813 5812 5811 5810 5809 5808 5806 5805 5803
5751 5754 5757 5759 5762 5764 5766 5768 5771 5774 5777 5780 5782 5785 5788 5791 5793 5795 5797 5799 5801 5802 5803 5804 5805 5806 5806 5806 5807 5806 5806 5806 5806 5806 5805 5805 5804 5803 5801 5800 5799 5797 5796
5742 5744 5747 5750 5753 5755 5757 5759 5762 5764 5767 5770 5773 5776 5778 5781 5783 5786 5788 5790 5791 5793 5794 5795 5796 5797 5798 5798 5799 5799 5798 5798 5798 5798 5798 5797 5796 5795 5794 5792 5791 5789 5787
5732 5735 5738 5741 5743 5745 5748 5750 5752 5755 5758 5760 5763 5766 5768 5771 5773 5775 5778 5780 5781 5784 5785 5786 5787 5788 5789 5790 5790 5790 5790 5790 5790 5789 5789 5788 5787 5786 5785 5784 5782 5780 5778
5723 5726 5728 5731 5733 5736 5738 5740 5743 5745 5748 5750 5753 5756 5758 5761 5762 5765 5768 5770 5772 5774 5776 5777 5778 5779 5780 5781 5781 5781 5782 5781 5781 5781 5780 5779 5779 5777 5776 5774 5773 5771 5769
5714 5716 5718 5721 5723 5725 5728 5730 5732 5735 5737 5740 5743 5746 5748 5750 5752 5755 5757 5760 5762 5764 5765 5767 5769 5770 5771 5771 5772 5772 5772 5773 5772 5772 5771 5771 5769 5768 5766 5765 5763 5761 5759
5705 5707 5709 5711 5713 5716 5718 5720 5722 5724 5727 5730 5733 5736 5738 5741 5743 5745 5747 5749 5751 5754 5756 5757 5759 5760 5761 5762 5762 5763 5763 5763 5763 5763 5762 5761 5759 5758 5757 5755 5753 5751 5749
5697 5699 5700 5703 5705 5707 5709 5710 5712 5714 5717 5720 5722 5725 5728 5731 5733 5735 5737 5739 5742 5744 5745 5747 5749 5750 5751 5752 5752 5752 5753 5752 5753 5753 5753 5751 5749 5748 5747 5745 5743 5741 5738
5690 5691 5693 5694 5696 5698 5700 5701 5703 5705 5707 5709 5712 5715 5718 5721 5723 5725 5727 5730 5732 5734 5736 5737 5739 5740 5741 5742 5743 5743 5742 5742 5741 5741 5742 5741 5740 5738 5737 5735 5732 5730 5728
5682 5684 5685 5687 5688 5690 5691 5692 5694 5696 5698 5700 5703 5705 5709 5712 5714 5716 5718 5720 5722 5724 5726 5728 5729 5730 5731 5732 5732 5732 5732 5732 5731 5730 5729 5730 5729 5728 5726 5724 5722 5720 5717